Weather History for Cumberland, WI

Change the Weather History Date:

Monday, December 31, 2012

  Actual Average (KRPD) Record (KRPD)
Temperature  
Mean Temperature 8 °F -  
Max Temperature 17 °F 21 °F 44 °F (2004)
Min Temperature -2 °F 6 °F -24 °F (2013)
Degree Days  
Heating Degree Days 58    
Moisture  
Dew Point 2 °F    
Average Humidity 71    
Maximum Humidity 93    
Minimum Humidity 48    
Precipitation  
Precipitation 0.00 in - - ()
Sea Level Pressure  
Sea Level Pressure 30.06 in    
Wind  
Wind Speed 10 mph (NW)    
Max Wind Speed 18 mph    
Max Gust Speed 24 mph    
Visibility 10 miles    
Events Snow    
Averages and records for this station are not official NWS values.
T = Trace of Precipitation, MM = Missing Value Source: NWS Daily Summary

Daily Weather History Graph

Daily Weather History Graph

Search for Another Location

Airport:

Trip Planner

Search our weather history database for the weather conditions in past years. The results will help you decide how hot, cold, wet, or windy it might be!

Date:

Astronomy

Dec. 31, 2012 Rise Set
Actual Time 7:48 AM CST 4:34 PM CST
Civil Twilight 7:13 AM CST 5:08 PM CST
Nautical Twilight 6:36 AM CST 5:46 PM CST
Astronomical Twilight 6:00 AM CST 6:22 PM CST
Moon 8:16 PM CST (12/31) 9:19 AM CST (12/31)
Length of Visible Light 9h 54m
Length of Day
8h 46m
Waning Gibbous, 90% of the Moon is Illuminated
Dec 31
Waning Gibbous
Jan 4
Last Quarter
Jan 11
New
Jan 18
First Quarter
Jan 26
Full

Hourly Weather History & Observations

Time (CST) Temp. Windchill Dew Point Humidity Pressure Visibility Wind Dir Wind Speed Gust Speed Precip Events Conditions
12:15 AM 8.6 °F -2.6 °F 5.0 °F 85% 29.86 in 7.0 mi West 6.9 mph - N/A   Clear
12:35 AM 10.4 °F -0.4 °F 8.6 °F 92% 29.88 in 7.0 mi West 6.9 mph - N/A   Mostly Cloudy
12:55 AM 14.0 °F 2.9 °F 12.2 °F 93% 29.89 in 10.0 mi West 8.1 mph - N/A   Overcast
1:15 AM 17.6 °F 5.7 °F 14.0 °F 86% 29.89 in 10.0 mi WNW 10.4 mph - N/A   Overcast
1:35 AM 17.6 °F 3.7 °F 14.0 °F 86% 29.89 in 10.0 mi NW 13.8 mph 18.4 mph N/A   Overcast
1:55 AM 17.6 °F 2.2 °F 14.0 °F 86% 29.91 in 10.0 mi NW 17.3 mph 24.2 mph N/A   Overcast
2:15 AM 15.8 °F 0.9 °F 12.2 °F 86% 29.92 in 7.0 mi NW 15.0 mph 19.6 mph N/A   Overcast
2:35 AM 15.8 °F 1.4 °F 12.2 °F 86% 29.94 in 7.0 mi NW 13.8 mph 19.6 mph N/A   Overcast
2:55 AM 15.8 °F 1.4 °F 12.2 °F 86% 29.94 in 10.0 mi NW 13.8 mph - N/A   Overcast
3:15 AM 15.8 °F 0.3 °F 12.2 °F 86% 29.96 in 10.0 mi NW 16.1 mph 21.9 mph N/A   Overcast
3:35 AM 15.8 °F 0.9 °F 12.2 °F 86% 29.96 in 10.0 mi NW 15.0 mph 21.9 mph N/A   Overcast
3:55 AM 15.8 °F 0.3 °F 12.2 °F 86% 29.97 in 10.0 mi NW 16.1 mph 19.6 mph N/A Snow Light Snow
4:15 AM 15.8 °F 1.4 °F 10.4 °F 79% 29.98 in 10.0 mi NW 13.8 mph 24.2 mph N/A Snow Light Snow
4:35 AM 15.8 °F 0.9 °F 10.4 °F 79% 29.98 in 10.0 mi NW 15.0 mph 19.6 mph N/A Snow Light Snow
4:55 AM 14.0 °F -3.0 °F 8.6 °F 79% 29.99 in 10.0 mi NW 18.4 mph 21.9 mph N/A Snow Light Snow
5:15 AM 14.0 °F -2.0 °F 8.6 °F 79% 30.00 in 10.0 mi NW 16.1 mph 23.0 mph N/A   Overcast
5:35 AM 14.0 °F 1.2 °F 6.8 °F 73% 30.00 in 10.0 mi NW 10.4 mph 15.0 mph N/A   Overcast
5:55 AM 12.2 °F -3.1 °F 5.0 °F 73% 30.01 in 10.0 mi NW 13.8 mph 19.6 mph N/A   Mostly Cloudy
6:15 AM 12.2 °F -1.8 °F 5.0 °F 73% 30.02 in 10.0 mi NW 11.5 mph 17.3 mph N/A   Clear
6:35 AM 10.4 °F -0.4 °F 5.0 °F 79% 30.03 in 10.0 mi WNW 6.9 mph - N/A   Clear
6:55 AM 10.4 °F 0.8 °F 5.0 °F 79% 30.05 in 10.0 mi West 5.8 mph - N/A   Mostly Cloudy
7:15 AM 12.2 °F 0.7 °F 5.0 °F 73% 30.06 in 10.0 mi WNW 8.1 mph - N/A Snow Light Snow
7:35 AM 10.4 °F -2.4 °F 5.0 °F 79% 30.06 in 10.0 mi NW 9.2 mph - N/A   Overcast
7:55 AM 10.4 °F -4.1 °F 5.0 °F 79% 30.05 in 10.0 mi NNW 11.5 mph - N/A   Overcast
8:15 AM 10.4 °F -4.8 °F 5.0 °F 79% 30.05 in 10.0 mi NNW 12.7 mph - N/A   Overcast
8:35 AM 10.4 °F -2.4 °F 3.2 °F 73% 30.07 in 10.0 mi NNW 9.2 mph - N/A   Overcast
8:55 AM 10.4 °F -0.4 °F 3.2 °F 73% 30.07 in 10.0 mi NW 6.9 mph - N/A   Overcast
9:15 AM 10.4 °F -1.5 °F 3.2 °F 73% 30.07 in 10.0 mi NW 8.1 mph - N/A Snow Light Snow
9:35 AM 10.4 °F -1.5 °F 3.2 °F 73% 30.08 in 10.0 mi NW 8.1 mph - N/A Snow Light Snow
9:55 AM 10.4 °F -4.8 °F 3.2 °F 73% 30.08 in 10.0 mi NW 12.7 mph - N/A   Mostly Cloudy
10:15 AM 10.4 °F -5.4 °F 3.2 °F 73% 30.09 in 10.0 mi NNW 13.8 mph - N/A   Scattered Clouds
10:35 AM 10.4 °F -5.4 °F 3.2 °F 73% 30.10 in 10.0 mi NNW 13.8 mph - N/A   Clear
10:55 AM 10.4 °F -4.1 °F 3.2 °F 73% 30.10 in 10.0 mi NW 11.5 mph - N/A   Clear
11:15 AM 12.2 °F -1.0 °F 1.4 °F 62% 30.10 in 10.0 mi NNW 10.4 mph - N/A   Clear
11:35 AM 10.4 °F -3.3 °F 1.4 °F 67% 30.09 in 10.0 mi NNW 10.4 mph - N/A   Clear
11:55 AM 12.2 °F -1.8 °F 1.4 °F 62% 30.08 in 10.0 mi NNW 11.5 mph - N/A   Clear
12:15 PM 12.2 °F -1.8 °F 1.4 °F 62% 30.07 in 10.0 mi NNW 11.5 mph - N/A   Clear
12:35 PM 12.2 °F 0.7 °F 1.4 °F 62% 30.07 in 10.0 mi NNW 8.1 mph - N/A   Clear
12:55 PM 12.2 °F -1.0 °F 1.4 °F 62% 30.07 in 10.0 mi NNW 10.4 mph - N/A   Clear
1:15 PM 14.0 °F 0.5 °F -0.4 °F 53% 30.07 in 10.0 mi NNW 11.5 mph - N/A   Clear
1:35 PM 14.0 °F 2.9 °F -0.4 °F 53% 30.08 in 10.0 mi North 8.1 mph - N/A   Clear
1:55 PM 14.0 °F 2.0 °F -0.4 °F 53% 30.08 in 10.0 mi NNW 9.2 mph - N/A   Clear
2:15 PM 14.0 °F 5.1 °F -0.4 °F 53% 30.09 in 10.0 mi NW 5.8 mph - N/A   Clear
2:35 PM 14.0 °F 2.9 °F -0.4 °F 53% 30.09 in 10.0 mi NW 8.1 mph - N/A   Clear
2:55 PM 14.0 °F 3.9 °F -2.2 °F 49% 30.10 in 10.0 mi NW 6.9 mph - N/A   Clear
3:15 PM 12.2 °F 1.7 °F -2.2 °F 53% 30.10 in 10.0 mi NW 6.9 mph - N/A   Clear
3:35 PM 12.2 °F -0.2 °F -2.2 °F 53% 30.11 in 10.0 mi NNW 9.2 mph - N/A   Clear
3:55 PM 12.2 °F -0.2 °F -4.0 °F 48% 30.11 in 10.0 mi NW 9.2 mph - N/A   Clear
4:15 PM 10.4 °F -0.4 °F -4.0 °F 52% 30.12 in 10.0 mi NNW 6.9 mph - N/A   Clear
4:35 PM 10.4 °F -1.5 °F -4.0 °F 52% 30.12 in 10.0 mi NW 8.1 mph - N/A   Clear
4:55 PM 8.6 °F -1.3 °F -4.0 °F 57% 30.13 in 10.0 mi WNW 5.8 mph - N/A   Clear
5:15 PM 6.8 °F -6.9 °F -4.0 °F 61% 30.14 in 10.0 mi WNW 9.2 mph - N/A   Clear
5:35 PM 6.8 °F -3.5 °F -4.0 °F 61% 30.14 in 10.0 mi WNW 5.8 mph - N/A   Clear
6:15 PM 5.0 °F -5.6 °F -4.0 °F 66% 30.14 in 10.0 mi NW 5.8 mph - N/A   Clear
6:35 PM 5.0 °F -9.1 °F -4.0 °F 66% 30.13 in 10.0 mi NW 9.2 mph - N/A   Clear
6:55 PM 5.0 °F -9.1 °F -4.0 °F 66% 30.14 in 10.0 mi NNW 9.2 mph - N/A   Clear
7:15 PM 5.0 °F -8.1 °F -4.0 °F 66% 30.15 in 10.0 mi NNW 8.1 mph - N/A   Clear
7:35 PM 3.2 °F -9.1 °F -5.8 °F 66% 30.15 in 10.0 mi NNW 6.9 mph - N/A   Clear
7:55 PM 3.2 °F -10.3 °F -5.8 °F 66% 30.16 in 10.0 mi NNW 8.1 mph - N/A   Clear
8:15 PM 3.2 °F -10.3 °F -5.8 °F 66% 30.16 in 10.0 mi NNW 8.1 mph - N/A   Clear
8:35 PM 3.2 °F -10.3 °F -5.8 °F 66% 30.16 in 10.0 mi NNW 8.1 mph - N/A   Clear
8:55 PM 1.4 °F -11.3 °F -5.8 °F 72% 30.16 in 10.0 mi NNW 6.9 mph - N/A   Clear
9:15 PM 1.4 °F -11.3 °F -5.8 °F 72% 30.16 in 10.0 mi NNW 6.9 mph - N/A   Clear
9:35 PM 1.4 °F -12.5 °F -5.8 °F 72% 30.16 in 10.0 mi NNW 8.1 mph - N/A   Clear
10:15 PM 1.4 °F -12.5 °F -5.8 °F 72% 30.16 in 10.0 mi North 8.1 mph - N/A   Clear
10:35 PM 1.4 °F -11.3 °F -5.8 °F 72% 30.17 in 10.0 mi North 6.9 mph - N/A   Clear
10:55 PM -0.4 °F -10.4 °F -7.6 °F 72% 30.18 in 10.0 mi North 4.6 mph - N/A   Clear
11:15 PM -2.2 °F -12.5 °F -7.6 °F 78% 30.19 in 10.0 mi NNW 4.6 mph - N/A   Clear
11:35 PM -2.2 °F -12.5 °F -7.6 °F 78% 30.19 in 10.0 mi NNW 4.6 mph - N/A   Clear